| time (UTC) | temp F | wind direction | speed knots | gust knots | rain 1hr in | rain 24hr in | rain mn in | humidity % | barometer mb |
| 20260509213020 | 57 | 161 | 1.7 | 3.5 | 0.00 | 0.54 | 0.48 | 88 | 1009.2 |
| 20260509212507 | 57 | 150 | 0.9 | 2.6 | 0.00 | 0.54 | 0.48 | 88 | 1009.3 |
| 20260509212007 | 57 | 182 | 0.9 | 2.6 | 0.00 | 0.54 | 0.48 | 88 | 1009.3 |
| 20260509211529 | 57 | 226 | 0.9 | 3.5 | 0.00 | 0.54 | 0.48 | 88 | 1009.2 |
| 20260509211009 | 57 | 209 | 0.9 | 3.5 | 0.00 | 0.54 | 0.48 | 88 | 1009.2 |
| 20260509210510 | 57 | 154 | 0.9 | 3.5 | 0.00 | 0.54 | 0.48 | 88 | 1009.2 |
| 20260509210031 | 57 | 205 | 2.6 | 3.5 | 0.00 | 0.54 | 0.48 | 89 | 1009.2 |
| 20260509205509 | 57 | 212 | 0.9 | 2.6 | 0.01 | 0.54 | 0.48 | 90 | 1009.2 |
| 20260509205010 | 57 | 162 | 0.0 | 4.3 | 0.01 | 0.54 | 0.48 | 90 | 1009.3 |
| 20260509204526 | 56 | 150 | 2.6 | 4.3 | 0.02 | 0.54 | 0.48 | 89 | 1009.4 |
| 20260509204010 | 57 | 150 | 1.7 | 2.6 | 0.02 | 0.54 | 0.48 | 90 | 1009.4 |
| 20260509203511 | 57 | 158 | 0.9 | 2.6 | 0.02 | 0.54 | 0.48 | 90 | 1009.4 |
| 20260509203026 | 56 | 158 | 0.9 | 2.6 | 0.03 | 0.55 | 0.48 | 91 | 1009.4 |
| 20260509202507 | 56 | 180 | 0.9 | 2.6 | 0.03 | 0.55 | 0.48 | 91 | 1009.5 |
| 20260509202016 | 56 | 142 | 1.7 | 2.6 | 0.03 | 0.55 | 0.48 | 91 | 1009.5 |
| 20260509201520 | 56 | 219 | 0.9 | 1.7 | 0.03 | 0.55 | 0.48 | 91 | 1009.6 |
| 20260509201013 | 55 | 150 | 0.0 | 1.7 | 0.03 | 0.55 | 0.48 | 91 | 1009.7 |
| 20260509200510 | 55 | 150 | 0.9 | 1.7 | 0.03 | 0.55 | 0.48 | 91 | 1009.8 |
| 20260509200025 | 55 | 215 | 0.9 | 2.6 | 0.03 | 0.55 | 0.48 | 91 | 1010.0 |
| 20260509195516 | 55 | 229 | 0.9 | 2.6 | 0.03 | 0.54 | 0.47 | 91 | 1010.0 |
| 20260509195012 | 55 | 213 | 0.9 | 2.6 | 0.03 | 0.55 | 0.47 | 91 | 1010.1 |
| 20260509194524 | 55 | 210 | 0.9 | 3.5 | 0.02 | 0.54 | 0.46 | 91 | 1010.1 |
| 20260509194014 | 55 | 201 | 0.9 | 4.3 | 0.02 | 0.54 | 0.46 | 90 | 1010.1 |
| 20260509193511 | 55 | 176 | 1.7 | 4.3 | 0.02 | 0.54 | 0.46 | 90 | 1010.1 |
| 20260509193028 | 55 | 221 | 1.7 | 4.3 | 0.02 | 0.52 | 0.45 | 90 | 1010.1 |
| 20260509192511 | 56 | 210 | 0.9 | 4.3 | 0.02 | 0.52 | 0.45 | 91 | 1010.2 |
| 20260509192011 | 56 | 203 | 2.6 | 4.3 | 0.02 | 0.52 | 0.45 | 90 | 1010.2 |
| 20260509191528 | 55 | 164 | 0.9 | 2.6 | 0.02 | 0.52 | 0.45 | 91 | 1010.2 |
| 20260509191011 | 55 | 158 | 1.7 | 2.6 | 0.03 | 0.52 | 0.45 | 91 | 1010.2 |
| 20260509190509 | 55 | 166 | 1.7 | 2.6 | 0.03 | 0.52 | 0.45 | 91 | 1010.3 |
| 20260509190022 | 55 | 167 | 1.7 | 3.5 | 0.03 | 0.52 | 0.45 | 91 | 1010.2 |
| 20260509185509 | 55 | 165 | 1.7 | 3.5 | 0.02 | 0.52 | 0.44 | 91 | 1010.2 |
| 20260509185011 | 54 | 176 | 1.7 | 3.5 | 0.03 | 0.52 | 0.44 | 91 | 1010.2 |
| 20260509184527 | 55 | 195 | 1.7 | 3.5 | 0.04 | 0.52 | 0.44 | 91 | 1010.2 |
| 20260509184014 | 54 | 161 | 2.6 | 3.5 | 0.04 | 0.52 | 0.44 | 92 | 1010.2 |
| 20260509183507 | 54 | 171 | 1.7 | 4.3 | 0.05 | 0.52 | 0.44 | 92 | 1010.2 |
| 20260509183027 | 53 | 188 | 1.7 | 4.3 | 0.04 | 0.51 | 0.43 | 92 | 1010.2 |
| 20260509182512 | 53 | 181 | 2.6 | 5.2 | 0.05 | 0.51 | 0.43 | 92 | 1010.3 |
| 20260509182010 | 53 | 168 | 2.6 | 5.2 | 0.06 | 0.51 | 0.43 | 92 | 1010.2 |
| 20260509181527 | 53 | 165 | 1.7 | 3.5 | 0.06 | 0.52 | 0.43 | 92 | 1010.3 |
| 20260509181011 | 53 | 168 | 2.6 | 4.3 | 0.06 | 0.51 | 0.42 | 92 | 1010.3 |
| 20260509180508 | 53 | 195 | 2.6 | 4.3 | 0.07 | 0.52 | 0.42 | 92 | 1010.3 |
| 20260509180029 | 53 | 165 | 2.6 | 4.3 | 0.08 | 0.52 | 0.42 | 92 | 1010.3 |
| 20260509175509 | 53 | 198 | 2.6 | 5.2 | 0.09 | 0.52 | 0.42 | 92 | 1010.3 |
| 20260509175011 | 53 | 170 | 2.6 | 6.1 | 0.09 | 0.52 | 0.41 | 92 | 1010.3 |
| 20260509174522 | 53 | 158 | 2.6 | 6.1 | 0.09 | 0.51 | 0.40 | 92 | 1010.3 |
| 20260509174011 | 53 | 143 | 3.5 | 6.1 | 0.10 | 0.51 | 0.40 | 92 | 1010.3 |
| 20260509173503 | 53 | 184 | 1.7 | 4.3 | 0.09 | 0.50 | 0.39 | 92 | 1010.3 |
| 20260509173008 | 52 | 152 | 2.6 | 4.3 | 0.10 | 0.50 | 0.39 | 92 | 1010.4 |
| 20260509172504 | 53 | 198 | 1.7 | 3.5 | 0.10 | 0.49 | 0.38 | 92 | 1010.4 |
| 20260509172005 | 53 | 150 | 0.9 | 1.7 | 0.10 | 0.48 | 0.37 | 92 | 1010.4 |
| 20260509171521 | 52 | 210 | 0.9 | 1.7 | 0.10 | 0.48 | 0.37 | 92 | 1010.5 |
| 20260509171010 | 52 | 214 | 0.0 | 1.7 | 0.10 | 0.47 | 0.36 | 92 | 1010.4 |
| 20260509170512 | 52 | 211 | 0.0 | 2.6 | 0.09 | 0.46 | 0.35 | 92 | 1010.4 |
| 20260509170027 | 52 | 211 | 0.9 | 2.6 | 0.08 | 0.45 | 0.34 | 92 | 1010.4 |
| 20260509165508 | 52 | 158 | 0.9 | 1.7 | 0.07 | 0.44 | 0.33 | 92 | 1010.5 |
| 20260509165008 | 52 | 163 | 0.9 | 2.6 | 0.06 | 0.43 | 0.32 | 92 | 1010.5 |
| 20260509164526 | 52 | 160 | 0.9 | 3.5 | 0.05 | 0.42 | 0.31 | 91 | 1010.5 |
| 20260509164003 | 52 | 181 | 0.9 | 3.5 | 0.04 | 0.41 | 0.30 | 92 | 1010.4 |
| 20260509163503 | 52 | 154 | 1.7 | 5.2 | 0.04 | 0.41 | 0.30 | 91 | 1010.4 |
| 20260509163008 | 52 | 145 | 3.5 | 5.2 | 0.04 | 0.40 | 0.29 | 91 | 1010.4 |
| 20260509162506 | 52 | 160 | 1.7 | 2.6 | 0.03 | 0.39 | 0.28 | 91 | 1010.4 |
| 20260509162006 | 52 | 154 | 0.9 | 1.7 | 0.02 | 0.38 | 0.27 | 91 | 1010.6 |
| 20260509161507 | 52 | 165 | 0.9 | 1.7 | 0.03 | 0.38 | 0.27 | 91 | 1010.7 |
| 20260509161003 | 52 | 169 | 0.9 | 3.5 | 0.03 | 0.37 | 0.26 | 91 | 1010.6 |
| 20260509160507 | 52 | 157 | 2.6 | 3.5 | 0.03 | 0.37 | 0.26 | 91 | 1010.6 |
| 20260509160026 | 52 | 169 | 1.7 | 3.5 | 0.04 | 0.37 | 0.26 | 92 | 1010.6 |
| 20260509155509 | 52 | 149 | 1.7 | 2.6 | 0.05 | 0.37 | 0.26 | 92 | 1010.7 |
| 20260509155008 | 52 | 150 | 0.9 | 2.6 | 0.05 | 0.37 | 0.26 | 91 | 1010.7 |
| 20260509154520 | 52 | 158 | 0.9 | 2.6 | 0.06 | 0.37 | 0.26 | 92 | 1010.8 |
| 20260509154010 | 52 | 151 | 0.9 | 2.6 | 0.07 | 0.37 | 0.26 | 92 | 1010.8 |
| 20260509153511 | 52 | 203 | 0.9 | 2.6 | 0.07 | 0.37 | 0.26 | 92 | 1010.9 |
| 20260509153024 | 52 | 174 | 0.9 | 1.7 | 0.07 | 0.36 | 0.25 | 92 | 1010.9 |
| 20260509152502 | 52 | 164 | 0.9 | 1.7 | 0.07 | 0.36 | 0.25 | 92 | 1011.0 |
| 20260509152006 | 51 | 160 | 1.7 | 1.7 | 0.08 | 0.36 | 0.25 | 92 | 1011.1 |
| 20260509151504 | 51 | 153 | 0.9 | 1.7 | 0.08 | 0.35 | 0.24 | 92 | 1011.1 |
| 20260509151004 | 51 | 148 | 0.9 | 1.7 | 0.07 | 0.34 | 0.23 | 92 | 1011.2 |
| 20260509150507 | 51 | 197 | 0.0 | 0.9 | 0.08 | 0.34 | 0.23 | 92 | 1011.2 |
| 20260509150016 | 51 | 169 | 0.0 | 0.9 | 0.08 | 0.33 | 0.22 | 92 | 1011.2 |
| 20260509145508 | 51 | 210 | 0.9 | 0.9 | 0.08 | 0.32 | 0.21 | 92 | 1011.2 |
| 20260509145008 | 51 | 207 | 0.9 | 0.9 | 0.08 | 0.32 | 0.21 | 92 | 1011.2 |
| 20260509144516 | 51 | 150 | 0.0 | 0.9 | 0.08 | 0.31 | 0.20 | 92 | 1011.2 |
| 20260509144012 | 51 | 150 | 0.0 | 0.9 | 0.07 | 0.30 | 0.19 | 92 | 1011.2 |
| 20260509143508 | 51 | 150 | 0.0 | 0.9 | 0.07 | 0.30 | 0.19 | 92 | 1011.2 |
| 20260509143019 | 51 | 149 | 0.0 | 0.9 | 0.06 | 0.29 | 0.18 | 93 | 1011.2 |
| 20260509142508 | 51 | 146 | 0.0 | 1.7 | 0.07 | 0.29 | 0.18 | 92 | 1011.3 |
| 20260509142011 | 51 | 146 | 0.9 | 1.7 | 0.06 | 0.28 | 0.17 | 92 | 1011.3 |
| 20260509141525 | 51 | 146 | 0.9 | 0.9 | 0.05 | 0.27 | 0.16 | 93 | 1011.3 |
| 20260509141007 | 51 | 165 | 0.0 | 0.0 | 0.05 | 0.27 | 0.16 | 93 | 1011.3 |
| 20260509140503 | 51 | 165 | 0.0 | 0.0 | 0.05 | 0.26 | 0.15 | 93 | 1011.4 |
| 20260509140006 | 51 | 165 | 0.0 | 0.0 | 0.04 | 0.25 | 0.14 | 93 | 1011.3 |
| 20260509135503 | 50 | 186 | 0.0 | 0.0 | 0.03 | 0.24 | 0.13 | 93 | 1011.4 |
| 20260509135007 | 51 | 186 | 0.0 | 0.0 | 0.03 | 0.24 | 0.13 | 93 | 1011.5 |
| 20260509134512 | 50 | 186 | 0.0 | 0.0 | 0.03 | 0.23 | 0.12 | 93 | 1011.4 |
| 20260509134012 | 50 | 186 | 0.0 | 0.0 | 0.03 | 0.23 | 0.12 | 93 | 1011.4 |
| 20260509133504 | 50 | 186 | 0.0 | 0.0 | 0.03 | 0.23 | 0.12 | 93 | 1011.4 |
| 20260509133015 | 50 | 186 | 0.0 | 0.0 | 0.03 | 0.23 | 0.12 | 93 | 1011.4 |
| 20260509132511 | 50 | 186 | 0.0 | 0.0 | 0.02 | 0.22 | 0.11 | 93 | 1011.4 |
| 20260509132009 | 50 | 186 | 0.0 | 0.0 | 0.02 | 0.22 | 0.11 | 93 | 1011.4 |
| 20260509131526 | 50 | 187 | 0.0 | 0.0 | 0.02 | 0.22 | 0.11 | 93 | 1011.5 |
| 20260509131009 | 50 | 187 | 0.0 | 0.0 | 0.02 | 0.22 | 0.11 | 93 | 1011.5 |
| 20260509130508 | 50 | 216 | 0.0 | 0.0 | 0.01 | 0.21 | 0.10 | 93 | 1011.5 |
| 20260509130028 | 50 | 237 | 0.0 | 0.0 | 0.01 | 0.21 | 0.10 | 93 | 1011.5 |
| 20260509125507 | 50 | 238 | 0.0 | 0.0 | 0.01 | 0.22 | 0.10 | 93 | 1011.5 |
| 20260509125011 | 50 | 237 | 0.0 | 0.0 | 0.01 | 0.22 | 0.10 | 93 | 1011.6 |
| 20260509124509 | 50 | 237 | 0.0 | 0.0 | 0.00 | 0.21 | 0.09 | 93 | 1011.6 |
| 20260509124004 | 50 | 245 | 0.0 | 0.0 | 0.00 | 0.21 | 0.09 | 93 | 1011.6 |
| 20260509123508 | 50 | 245 | 0.0 | 0.0 | 0.01 | 0.21 | 0.09 | 94 | 1011.5 |
| 20260509123011 | 50 | 245 | 0.0 | 0.0 | 0.01 | 0.21 | 0.09 | 93 | 1011.4 |
| 20260509122507 | 50 | 245 | 0.0 | 0.0 | 0.01 | 0.21 | 0.09 | 93 | 1011.4 |
| 20260509122008 | 50 | 245 | 0.0 | 0.0 | 0.01 | 0.21 | 0.09 | 93 | 1011.5 |
| 20260509121524 | 50 | 245 | 0.0 | 0.0 | 0.01 | 0.21 | 0.09 | 94 | 1011.4 |
| 20260509121009 | 49 | 245 | 0.0 | 0.0 | 0.01 | 0.21 | 0.09 | 94 | 1011.4 |
| 20260509120512 | 49 | 245 | 0.0 | 0.0 | 0.01 | 0.21 | 0.09 | 94 | 1011.4 |
| 20260509120022 | 49 | 245 | 0.0 | 0.0 | 0.01 | 0.21 | 0.09 | 94 | 1011.4 |
| 20260509115507 | 49 | 245 | 0.0 | 0.0 | 0.01 | 0.21 | 0.09 | 93 | 1011.3 |
| 20260509115009 | 49 | 245 | 0.0 | 0.0 | 0.01 | 0.21 | 0.09 | 94 | 1011.5 |
| 20260509114527 | 49 | 245 | 0.0 | 0.0 | 0.01 | 0.21 | 0.09 | 94 | 1011.5 |
| 20260509114009 | 49 | 245 | 0.0 | 0.0 | 0.01 | 0.21 | 0.09 | 94 | 1011.5 |
| 20260509113511 | 49 | 245 | 0.0 | 0.0 | 0.00 | 0.20 | 0.08 | 94 | 1011.5 |
| 20260509113029 | 49 | 245 | 0.0 | 0.0 | 0.00 | 0.20 | 0.08 | 94 | 1011.4 |
| 20260509112503 | 49 | 245 | 0.0 | 0.0 | 0.00 | 0.20 | 0.08 | 94 | 1011.4 |
| 20260509112007 | 49 | 245 | 0.0 | 0.0 | 0.00 | 0.20 | 0.08 | 94 | 1011.5 |
| 20260509111514 | 49 | 245 | 0.0 | 0.0 | 0.00 | 0.20 | 0.08 | 94 | 1011.4 |
| 20260509111009 | 49 | 245 | 0.0 | 0.9 | 0.00 | 0.20 | 0.08 | 94 | 1011.5 |
| 20260509110510 | 49 | 251 | 0.0 | 2.6 | 0.00 | 0.20 | 0.08 | 94 | 1011.6 |
| 20260509110019 | 49 | 271 | 0.0 | 2.6 | 0.00 | 0.20 | 0.08 | 94 | 1011.5 |
| 20260509105508 | 48 | 267 | 0.9 | 2.6 | 0.00 | 0.20 | 0.08 | 94 | 1011.6 |
| 20260509105010 | 48 | 260 | 0.0 | 1.7 | 0.00 | 0.20 | 0.08 | 94 | 1011.5 |
| 20260509104522 | 48 | 332 | 0.0 | 0.0 | 0.00 | 0.20 | 0.08 | 94 | 1011.2 |
| 20260509104010 | 48 | 332 | 0.0 | 0.0 | 0.00 | 0.20 | 0.08 | 94 | 1011.3 |
| 20260509103510 | 48 | 332 | 0.0 | 0.0 | 0.00 | 0.20 | 0.08 | 93 | 1011.3 |
| 20260509103025 | 48 | 332 | 0.0 | 0.0 | 0.00 | 0.20 | 0.08 | 93 | 1011.3 |
| 20260509102511 | 48 | 332 | 0.0 | 0.0 | 0.00 | 0.20 | 0.08 | 93 | 1011.3 |
| 20260509102013 | 48 | 332 | 0.0 | 0.0 | 0.00 | 0.20 | 0.08 | 93 | 1011.3 |
| 20260509101535 | 48 | 332 | 0.0 | 0.0 | 0.00 | 0.20 | 0.08 | 93 | 1011.2 |
| 20260509101012 | 48 | 332 | 0.0 | 0.0 | 0.00 | 0.20 | 0.08 | 93 | 1011.3 |
| 20260509100504 | 48 | 332 | 0.0 | 0.0 | 0.00 | 0.20 | 0.08 | 93 | 1011.3 |
| 20260509100022 | 48 | 332 | 0.0 | 0.0 | 0.00 | 0.20 | 0.08 | 93 | 1011.2 |
| 20260509095508 | 48 | 332 | 0.0 | 0.0 | 0.01 | 0.20 | 0.08 | 93 | 1011.3 |
| 20260509095007 | 48 | 332 | 0.0 | 0.0 | 0.01 | 0.20 | 0.08 | 93 | 1011.4 |
| 20260509094521 | 48 | 332 | 0.0 | 0.0 | 0.01 | 0.20 | 0.08 | 93 | 1011.6 |
| 20260509094010 | 48 | 332 | 0.0 | 0.0 | 0.01 | 0.20 | 0.08 | 93 | 1011.6 |
| 20260509093508 | 48 | 332 | 0.0 | 0.0 | 0.01 | 0.20 | 0.08 | 93 | 1011.6 |
| 20260509093025 | 48 | 332 | 0.0 | 0.0 | 0.01 | 0.20 | 0.08 | 93 | 1011.7 |
| 20260509092509 | 48 | 332 | 0.0 | 0.0 | 0.01 | 0.20 | 0.08 | 93 | 1011.7 |
| 20260509092013 | 48 | 332 | 0.0 | 0.0 | 0.01 | 0.20 | 0.08 | 93 | 1011.8 |
| 20260509091524 | 48 | 332 | 0.0 | 0.0 | 0.01 | 0.20 | 0.08 | 93 | 1011.7 |
| 20260509091008 | 48 | 332 | 0.0 | 0.0 | 0.01 | 0.20 | 0.08 | 93 | 1011.7 |
| 20260509090514 | 48 | 332 | 0.0 | 0.0 | 0.01 | 0.20 | 0.08 | 93 | 1011.6 |
| 20260509090028 | 48 | 332 | 0.0 | 0.0 | 0.01 | 0.20 | 0.08 | 93 | 1011.7 |
| 20260509085508 | 48 | 332 | 0.0 | 0.0 | 0.00 | 0.19 | 0.07 | 93 | 1011.8 |
| 20260509085010 | 48 | 332 | 0.0 | 0.0 | 0.00 | 0.19 | 0.07 | 93 | 1012.0 |
| 20260509084519 | 48 | 332 | 0.0 | 0.0 | 0.00 | 0.19 | 0.07 | 93 | 1011.8 |
| 20260509084008 | 48 | 332 | 0.0 | 0.0 | 0.00 | 0.19 | 0.07 | 93 | 1011.7 |
| 20260509083510 | 48 | 331 | 0.0 | 0.0 | 0.00 | 0.19 | 0.07 | 93 | 1011.7 |
| 20260509083023 | 48 | 332 | 0.0 | 0.0 | 0.00 | 0.19 | 0.07 | 93 | 1011.5 |
| 20260509082507 | 48 | 331 | 0.0 | 0.0 | 0.00 | 0.19 | 0.07 | 93 | 1011.5 |
| 20260509082009 | 48 | 332 | 0.0 | 0.0 | 0.00 | 0.19 | 0.07 | 93 | 1011.6 |
| 20260509081531 | 48 | 332 | 0.0 | 0.0 | 0.01 | 0.19 | 0.07 | 93 | 1011.7 |
| 20260509081010 | 48 | 332 | 0.0 | 0.0 | 0.01 | 0.19 | 0.07 | 93 | 1011.6 |
| 20260509080511 | 48 | 332 | 0.0 | 0.0 | 0.02 | 0.19 | 0.07 | 93 | 1011.7 |
| 20260509080026 | 48 | 332 | 0.0 | 0.0 | 0.03 | 0.19 | 0.07 | 93 | 1011.7 |
| 20260509075509 | 48 | 332 | 0.0 | 0.0 | 0.03 | 0.19 | 0.07 | 93 | 1011.6 |
| 20260509075014 | 48 | 332 | 0.0 | 0.0 | 0.03 | 0.19 | 0.07 | 93 | 1011.6 |
| 20260509074526 | 48 | 332 | 0.0 | 0.0 | 0.04 | 0.19 | 0.07 | 93 | 1011.8 |
| 20260509074013 | 48 | 332 | 0.0 | 0.0 | 0.04 | 0.19 | 0.07 | 93 | 1011.8 |
| 20260509073511 | 48 | 332 | 0.0 | 0.0 | 0.04 | 0.19 | 0.07 | 93 | 1012.0 |
| 20260509073017 | 49 | 331 | 0.0 | 0.0 | 0.04 | 0.19 | 0.07 | 93 | 1012.0 |
| 20260509072507 | 48 | 332 | 0.0 | 0.0 | 0.05 | 0.19 | 0.07 | 93 | 1012.0 |
| 20260509072010 | 48 | 332 | 0.0 | 0.0 | 0.06 | 0.19 | 0.07 | 93 | 1012.3 |
| 20260509071522 | 49 | 332 | 0.0 | 0.0 | 0.05 | 0.18 | 0.06 | 93 | 1012.4 |
| 20260509071007 | 49 | 332 | 0.0 | 0.0 | 0.05 | 0.18 | 0.06 | 93 | 1012.3 |
| 20260509070509 | 49 | 332 | 0.0 | 0.0 | 0.04 | 0.17 | 0.05 | 93 | 1012.1 |
| 20260509070027 | 49 | 332 | 0.0 | 0.0 | 0.03 | 0.16 | 0.04 | 93 | 1012.3 |
| 20260509065510 | 49 | 332 | 0.0 | 0.0 | 0.03 | 0.16 | 0.04 | 93 | 1012.4 |
| 20260509065008 | 49 | 332 | 0.0 | 0.0 | 0.03 | 0.16 | 0.04 | 93 | 1012.5 |
| 20260509064528 | 49 | 331 | 0.0 | 0.0 | 0.02 | 0.15 | 0.03 | 93 | 1012.6 |
| 20260509064010 | 49 | 331 | 0.0 | 0.0 | 0.02 | 0.15 | 0.03 | 93 | 1012.6 |
| 20260509063509 | 49 | 332 | 0.0 | 0.0 | 0.02 | 0.15 | 0.03 | 93 | 1012.6 |
| 20260509063026 | 49 | 331 | 0.0 | 0.0 | 0.02 | 0.15 | 0.03 | 93 | 1012.8 |
| 20260509062511 | 49 | 332 | 0.0 | 0.0 | 0.02 | 0.14 | 0.02 | 93 | 1013.0 |
| 20260509062016 | 49 | 332 | 0.0 | 0.0 | 0.01 | 0.13 | 0.01 | 93 | 1013.0 |
| 20260509061530 | 49 | 331 | 0.0 | 0.0 | 0.01 | 0.13 | 0.01 | 93 | 1013.0 |
| 20260509061011 | 49 | 332 | 0.0 | 0.0 | 0.01 | 0.13 | 0.01 | 93 | 1013.0 |
| 20260509060509 | 49 | 332 | 0.0 | 0.0 | 0.01 | 0.13 | 0.01 | 93 | 1013.0 |
| 20260509060023 | 49 | 332 | 0.0 | 0.0 | 0.01 | 0.13 | 0.01 | 93 | 1013.0 |
| 20260509055508 | 49 | 332 | 0.0 | 0.0 | 0.01 | 0.13 | 0.01 | 93 | 1013.0 |
| 20260509055013 | 49 | 332 | 0.0 | 0.0 | 0.01 | 0.13 | 0.01 | 93 | 1013.0 |
| 20260509054525 | 49 | 331 | 0.0 | 0.0 | 0.01 | 0.13 | 0.01 | 93 | 1013.0 |
| 20260509054011 | 49 | 332 | 0.0 | 0.0 | 0.01 | 0.13 | 0.01 | 93 | 1013.0 |
| 20260509053507 | 49 | 331 | 0.0 | 0.0 | 0.01 | 0.13 | 0.01 | 93 | 1013.1 |
| 20260509053014 | 49 | 332 | 0.0 | 0.0 | 0.01 | 0.13 | 0.01 | 93 | 1013.2 |
| 20260509052506 | 49 | 331 | 0.0 | 0.0 | 0.00 | 0.12 | 0.00 | 93 | 1013.3 |
| 20260509052008 | 49 | 332 | 0.0 | 0.0 | 0.00 | 0.12 | 0.00 | 93 | 1013.3 |
| 20260509051518 | 49 | 332 | 0.0 | 0.0 | 0.00 | 0.12 | 0.00 | 93 | 1013.4 |
| 20260509051010 | 49 | 332 | 0.0 | 0.0 | 0.00 | 0.12 | 0.00 | 93 | 1013.5 |
| 20260509050504 | 49 | 332 | 0.0 | 0.0 | 0.00 | 0.12 | 0.00 | 93 | 1013.4 |
| 20260509050005 | 49 | 332 | 0.0 | 0.0 | 0.00 | 0.12 | 0.00 | 93 | 1013.3 |
| 20260509045505 | 49 | 331 | 0.0 | 0.0 | 0.00 | 0.12 | 0.00 | 93 | 1013.2 |
| 20260509045003 | 49 | 332 | 0.0 | 0.0 | 0.00 | 0.12 | 0.00 | 93 | 1013.0 |
| 20260509044505 | 49 | 332 | 0.0 | 0.0 | 0.01 | 0.12 | 0.00 | 93 | 1013.0 |
| 20260509044003 | 49 | 332 | 0.0 | 0.0 | 0.01 | 0.12 | 0.00 | 93 | 1012.9 |
| 20260509043503 | 49 | 332 | 0.0 | 0.0 | 0.01 | 0.12 | 0.00 | 93 | 1012.8 |
| 20260509043009 | 49 | 332 | 0.0 | 0.0 | 0.01 | 0.12 | 0.00 | 92 | 1012.7 |
| 20260509042505 | 49 | 332 | 0.0 | 0.0 | 0.01 | 0.12 | 0.00 | 92 | 1012.5 |
| 20260509042010 | 49 | 332 | 0.0 | 0.0 | 0.01 | 0.12 | 0.00 | 92 | 1012.5 |
| 20260509041514 | 49 | 331 | 0.0 | 0.0 | 0.01 | 0.12 | 0.00 | 92 | 1012.6 |
| 20260509041010 | 49 | 331 | 0.0 | 0.0 | 0.01 | 0.12 | 0.00 | 92 | 1012.5 |
| 20260509040511 | 49 | 332 | 0.0 | 0.0 | 0.01 | 0.12 | 0.00 | 92 | 1012.6 |
| 20260509040020 | 49 | 332 | 0.0 | 0.9 | 0.01 | 0.12 | 0.00 | 92 | 1012.8 |
| 20260509035515 | 49 | 332 | 0.0 | 0.9 | 0.01 | 0.12 | 0.12 | 92 | 1012.9 |
| 20260509035015 | 49 | 332 | 0.0 | 0.9 | 0.01 | 0.12 | 0.12 | 92 | 1012.9 |
| 20260509034519 | 49 | 331 | 0.0 | 0.9 | 0.00 | 0.11 | 0.11 | 92 | 1013.0 |
| 20260509034004 | 49 | 331 | 0.0 | 0.9 | 0.01 | 0.11 | 0.11 | 92 | 1013.1 |
| 20260509033503 | 49 | 331 | 0.0 | 0.9 | 0.01 | 0.12 | 0.11 | 92 | 1013.1 |
| 20260509033005 | 49 | 331 | 0.0 | 0.9 | 0.01 | 0.12 | 0.11 | 92 | 1013.1 |
| 20260509032513 | 49 | 331 | 0.0 | 0.0 | 0.01 | 0.13 | 0.11 | 92 | 1013.2 |
| 20260509032012 | 49 | 331 | 0.0 | 0.9 | 0.01 | 0.14 | 0.11 | 92 | 1013.3 |
| 20260509031514 | 49 | 331 | 0.0 | 0.9 | 0.01 | 0.14 | 0.11 | 92 | 1013.4 |
| 20260509031007 | 49 | 331 | 0.0 | 0.9 | 0.01 | 0.14 | 0.11 | 92 | 1013.2 |
| 20260509030507 | 49 | 331 | 0.0 | 0.9 | 0.01 | 0.14 | 0.11 | 92 | 1013.3 |
| 20260509030020 | 49 | 331 | 0.0 | 0.0 | 0.01 | 0.14 | 0.11 | 92 | 1013.3 |
| 20260509025511 | 49 | 331 | 0.0 | 0.9 | 0.01 | 0.15 | 0.11 | 92 | 1013.2 |
| 20260509025008 | 49 | 331 | 0.0 | 0.9 | 0.01 | 0.16 | 0.11 | 92 | 1013.2 |
| 20260509024520 | 49 | 331 | 0.0 | 0.9 | 0.01 | 0.17 | 0.11 | 92 | 1013.1 |
| 20260509024008 | 49 | 331 | 0.0 | 0.9 | 0.00 | 0.17 | 0.10 | 92 | 1013.2 |
| 20260509023509 | 49 | 331 | 0.0 | 0.9 | 0.00 | 0.17 | 0.10 | 92 | 1013.1 |
| 20260509023023 | 49 | 331 | 0.0 | 0.0 | 0.00 | 0.17 | 0.10 | 92 | 1013.1 |
| 20260509022503 | 49 | 331 | 0.0 | 0.9 | 0.00 | 0.17 | 0.10 | 92 | 1013.3 |
| 20260509022004 | 49 | 331 | 0.0 | 0.9 | 0.00 | 0.17 | 0.10 | 92 | 1013.1 |
| 20260509021508 | 49 | 331 | 0.0 | 0.0 | 0.00 | 0.17 | 0.10 | 92 | 1013.3 |
| 20260509021008 | 49 | 331 | 0.0 | 0.0 | 0.00 | 0.18 | 0.10 | 92 | 1013.3 |
| 20260509020509 | 49 | 331 | 0.0 | 0.0 | 0.00 | 0.18 | 0.10 | 92 | 1013.2 |
| 20260509020010 | 49 | 331 | 0.0 | 0.9 | 0.00 | 0.18 | 0.10 | 92 | 1013.1 |
| 20260509015510 | 49 | 331 | 0.0 | 0.9 | 0.00 | 0.19 | 0.10 | 92 | 1013.0 |
| 20260509015008 | 49 | 331 | 0.0 | 0.9 | 0.00 | 0.20 | 0.10 | 92 | 1013.0 |
| 20260509014515 | 49 | 331 | 0.0 | 0.9 | 0.00 | 0.21 | 0.10 | 92 | 1013.0 |
| 20260509014007 | 49 | 331 | 0.0 | 0.9 | 0.00 | 0.21 | 0.10 | 92 | 1012.9 |
| 20260509013508 | 49 | 331 | 0.0 | 0.9 | 0.00 | 0.21 | 0.10 | 92 | 1012.9 |
| 20260509013023 | 49 | 331 | 0.0 | 0.0 | 0.00 | 0.21 | 0.10 | 92 | 1012.9 |
| 20260509012509 | 49 | 331 | 0.0 | 0.0 | 0.00 | 0.21 | 0.10 | 91 | 1012.8 |
| 20260509012008 | 49 | 331 | 0.0 | 0.0 | 0.00 | 0.21 | 0.10 | 91 | 1012.7 |
| 20260509011523 | 49 | 331 | 0.0 | 0.0 | 0.00 | 0.21 | 0.10 | 91 | 1012.6 |
| 20260509011010 | 49 | 331 | 0.0 | 0.0 | 0.00 | 0.21 | 0.10 | 91 | 1012.6 |
| 20260509010504 | 49 | 331 | 0.0 | 0.0 | 0.00 | 0.21 | 0.10 | 91 | 1012.6 |
| 20260509010011 | 49 | 331 | 0.0 | 0.0 | 0.00 | 0.21 | 0.10 | 91 | 1012.5 |
| 20260509005505 | 49 | 331 | 0.0 | 0.0 | 0.00 | 0.21 | 0.10 | 91 | 1012.4 |
| 20260509005007 | 49 | 331 | 0.0 | 0.0 | 0.00 | 0.21 | 0.10 | 91 | 1012.5 |
| 20260509004512 | 49 | 331 | 0.0 | 0.0 | 0.00 | 0.21 | 0.10 | 91 | 1012.5 |
| 20260509004010 | 49 | 331 | 0.0 | 0.0 | 0.00 | 0.21 | 0.10 | 91 | 1012.5 |
| 20260509003508 | 50 | 331 | 0.0 | 0.0 | 0.00 | 0.21 | 0.10 | 91 | 1012.4 |
| 20260509003020 | 50 | 331 | 0.0 | 0.0 | 0.00 | 0.21 | 0.10 | 90 | 1012.3 |
| 20260509002511 | 50 | 331 | 0.0 | 0.0 | 0.00 | 0.21 | 0.10 | 90 | 1012.3 |
| 20260509002012 | 50 | 331 | 0.0 | 0.0 | 0.00 | 0.21 | 0.10 | 91 | 1012.2 |
| 20260509001526 | 50 | 331 | 0.0 | 0.0 | 0.00 | 0.21 | 0.10 | 91 | 1012.3 |
| 20260509001010 | 50 | 331 | 0.0 | 0.0 | 0.00 | 0.21 | 0.10 | 90 | 1012.3 |
| 20260509000507 | 50 | 331 | 0.0 | 0.0 | 0.00 | 0.21 | 0.10 | 90 | 1012.2 |
| 20260509000024 | 51 | 331 | 0.0 | 0.0 | 0.00 | 0.21 | 0.10 | 90 | 1012.1 |
| 20260508235511 | 51 | 331 | 0.0 | 0.0 | 0.00 | 0.21 | 0.10 | 90 | 1012.2 |
| 20260508235004 | 51 | 331 | 0.0 | 0.0 | 0.00 | 0.21 | 0.10 | 90 | 1012.2 |
| 20260508234529 | 51 | 331 | 0.0 | 0.0 | 0.00 | 0.21 | 0.10 | 90 | 1012.0 |
| 20260508234006 | 51 | 334 | 0.0 | 0.0 | 0.00 | 0.21 | 0.10 | 90 | 1011.9 |
| 20260508233506 | 51 | 334 | 0.0 | 0.0 | 0.01 | 0.21 | 0.10 | 90 | 1011.8 |
| 20260508233016 | 51 | 334 | 0.0 | 0.0 | 0.01 | 0.21 | 0.10 | 90 | 1011.9 |
| 20260508232507 | 51 | 334 | 0.0 | 0.9 | 0.02 | 0.21 | 0.10 | 90 | 1011.6 |
| 20260508232010 | 51 | 334 | 0.0 | 0.9 | 0.02 | 0.21 | 0.10 | 90 | 1011.7 |
| 20260508231520 | 51 | 334 | 0.0 | 0.9 | 0.03 | 0.21 | 0.10 | 90 | 1011.8 |
| 20260508231007 | 51 | 261 | 0.0 | 0.0 | 0.04 | 0.21 | 0.10 | 90 | 1011.8 |
| 20260508230510 | 51 | 253 | 0.0 | 0.0 | 0.04 | 0.21 | 0.10 | 89 | 1011.7 |
| 20260508230025 | 51 | 253 | 0.0 | 0.0 | 0.04 | 0.21 | 0.10 | 89 | 1011.8 |
| 20260508225511 | 51 | 253 | 0.0 | 0.0 | 0.04 | 0.21 | 0.10 | 89 | 1011.9 |
| 20260508225012 | 51 | 253 | 0.0 | 0.0 | 0.04 | 0.21 | 0.10 | 88 | 1012.0 |
| 20260508224534 | 51 | 250 | 0.0 | 0.9 | 0.04 | 0.21 | 0.10 | 87 | 1012.0 |
| 20260508224011 | 52 | 249 | 0.0 | 0.9 | 0.04 | 0.21 | 0.10 | 87 | 1012.0 |
| 20260508223507 | 52 | 249 | 0.0 | 0.9 | 0.03 | 0.20 | 0.09 | 86 | 1012.1 |
| 20260508223011 | 53 | 311 | 0.0 | 0.9 | 0.03 | 0.20 | 0.09 | 85 | 1012.1 |
| 20260508222506 | 53 | 343 | 0.0 | 0.9 | 0.02 | 0.19 | 0.08 | 84 | 1012.0 |
| 20260508222008 | 54 | 319 | 0.0 | 0.0 | 0.02 | 0.19 | 0.08 | 83 | 1012.0 |
| 20260508221517 | 54 | 319 | 0.0 | 0.0 | 0.01 | 0.18 | 0.07 | 81 | 1012.0 |
| 20260508221007 | 55 | 319 | 0.0 | 0.0 | 0.00 | 0.17 | 0.06 | 80 | 1012.0 |
| 20260508220508 | 55 | 319 | 0.0 | 0.9 | 0.00 | 0.17 | 0.06 | 80 | 1011.8 |
| 20260508220027 | 56 | 319 | 0.0 | 0.9 | 0.00 | 0.17 | 0.06 | 80 | 1011.5 |
| 20260508215508 | 56 | 283 | 0.0 | 0.9 | 0.00 | 0.17 | 0.06 | 79 | 1011.6 |
| 20260508215011 | 57 | 250 | 0.9 | 0.9 | 0.00 | 0.17 | 0.06 | 76 | 1011.3 |
| 20260508214548 | 57 | 248 | 0.0 | 1.7 | 0.00 | 0.17 | 0.06 | 73 | 1011.1 |
| 20260508214013 | 57 | 248 | 0.0 | 1.7 | 0.00 | 0.17 | 0.06 | 71 | 1011.1 |
| 20260508213506 | 57 | 144 | 0.0 | 0.9 | 0.00 | 0.17 | 0.06 | 70 | 1011.1 |